Regional Weather Roundup
Issued by NWS

Current Version | Previous Version | Text Only | Print | Product List | Glossary On
Versions: 1 2 3 4 5 6 7 8 9 10 11 12 13 14 15 16 17 18 19 20 21 22 23 24 25 26 27 28 29 30 31 32 33 34 35 36 37 38 39 40 41 42 43 44 45 46 47 48 49 50
000
ASUS44 KFWD 191915
RWRTX
NORTH TEXAS HOURLY WEATHER ROUNDUP
NATIONAL WEATHER SERVICE FORT WORTH TX
200 PM CDT SUN APR 19 2015

NOTE: "FAIR" INDICATES FEW OR NO CLOUDS BELOW 12,000 FEET WITH NO
SIGNIFICANT WEATHER AND/OR OBSTRUCTIONS TO VISIBILITY.

TXZ118-119-192000-
DALLAS/FORT WORTH METROPLEX

CITY           SKY/WX    TMP DP  RH WIND       PRES   REMARKS
DFW AIRPORT    MOSUNNY   72  57  59 W17G32    29.75R
DALLAS LOVE    MOSUNNY   75  58  55 NW20G29   29.74R
FTW MEACHAM    MOSUNNY   72  59  63 NW21G26   29.77R
DAL-EXECUTIVE  SUNNY     76  57  51 W20G28    29.73R
FTW-ALLIANCE   MOSUNNY   70  57  63 NW21G26   29.77R
FTW-NAS-JRB    MOSUNNY   74  57  55 W17G23    29.82R
FTW-SPINKS     MOSUNNY   73  57  56 W20G25    29.79R
ARLINGTON      MOSUNNY   76  56  49 W16G26    29.75R
GRAND PRAIRIE  SUNNY     77  55  47 W17G29    29.77R
ADDISON        MOSUNNY   73  57  56 W20G29    29.75R
MESQUITE       SUNNY     79  55  44 W21       29.72S
LANCASTER      SUNNY     76  55  48 W17G24    29.74R
$$

TXZ091>094-102>105-117-120-121-131>134-192000-
NORTH CENTRAL TEXAS

CITY           SKY/WX    TMP DP  RH WIND       PRES   REMARKS
SHRMAN/DENISON CLOUDY    70  62  75 W16       29.75S
GAINESVILLE    PTSUNNY   68  57  66 NW13G21   29.77F
BOWIE          PTSUNNY   68  55  62 W15G23    29.79R
BRIDGEPORT     SUNNY     70  57  63 NW7G16    29.81S
DECATUR        MOSUNNY   69  55  60 W13G21    29.78F
DENTON         MOSUNNY   69  57  65 W18       29.76S
MCKINNEY       PTSUNNY   72  59  63 W18G29    29.73R
GREENVILLE     PTSUNNY   77  57  50 W14G22    29.71S
ROCKWALL       SUNNY     77  59  54 NW20G25   29.71R
TERRELL        SUNNY     80  59  48 W20G25    29.71F
WAXAHACHIE     SUNNY     75  58  55 W18G26    29.76R
CLEBURNE       SUNNY     73  61  64 W21       29.80S
GRANBURY       PTSUNNY   74  57  56 W12G30    29.81S
$$

TXZ083>090-098>101-113>116-127>130-139>142-154-155-192000-
WESTERN NORTH TEXAS

CITY           SKY/WX    TMP DP  RH WIND       PRES   REMARKS
WICHITA FALLS  MOSUNNY   72  48  42 NW20G29   29.80R
WF-KICKAPOO    MOSUNNY   72  45  37 NW12G20   29.81S
VERNON         MOSUNNY   71  38  29 NW22G30   29.83S
ABILENE        SUNNY     74  42  31 NW17G25   29.87F
ABILENE-DYESS  MOSUNNY   73  44  34 NW17      29.86F
BRECKENRIDGE   SUNNY     76  44  31 NW17G25   29.83F HAZE
GRAHAM         SUNNY     73  51  46 W15G24    29.81S
MINERAL WELLS  SUNNY     72  54  53 NW20G28   29.79F
STEPHENVILLE   MOSUNNY   73  52  46 NW15G23   29.85S
COMANCHE       MOSUNNY   73  54  51 NW15G23   29.85S
BROWNWOOD      SUNNY     75  48  38 NW18      29.86S
COLEMAN        SUNNY     74  46  36 NW13G21   29.88S
BRADY          SUNNY     77  48  36 NW15      29.87F
$$

TXZ143>147-156>162-174-175-192000-
CENTRAL TEXAS

CITY           SKY/WX    TMP DP  RH WIND       PRES   REMARKS
WACO           SUNNY     81  55  40 W21       29.76F
WACO-TSTC      SUNNY     82  61  47 W15G24    29.76F
WACO-MCGREGOR  SUNNY     81  59  47 W14G23    29.78S
HILLSBORO      SUNNY     78  54  42 W18G24    29.77R
CORSICANA      MOSUNNY   81  58  45 W21G29    29.74F
MEXIA          MOSUNNY   80  64  57 W16       29.74F
HEARNE         MOSUNNY   82  70  67 W13G21    29.77S
CAMERON        MOSUNNY   83  66  55 W14G21    29.76S
TEMPLE         SUNNY     82  57  42 W18       29.77S
KILLEEN        SUNNY     82  57  42 NW18      29.78F
FORT HOOD      SUNNY     82  56  41 W16G28    29.77F
HAMILTON       SUNNY     76  54  46 W20G25    29.84S
LAMPASAS       SUNNY     81  51  35 W15G25    29.82R
$$

TXZ095>097-106>112-122>126-135>138-148>153-164>167-192000-
EAST TEXAS

CITY           SKY/WX    TMP DP  RH WIND       PRES   REMARKS
PARIS          CLOUDY    73  59  60 MISG      29.70F
SULPHUR SPRNGS   N/A     75  62  64 SW15G23   29.72F
MOUNT PLEASANT PTSUNNY   74  62  66 SW10G18   29.72S
GILMER         MOSUNNY   74  63  68 S13G20    29.70F
TYLER          MOSUNNY   77  64  64 SW13G21   29.71F
LONGVIEW       CLOUDY    76  64  66 SW14      29.71F
MARSHALL       PTSUNNY   76  65  69 SW9       29.74F
ATHENS         PTSUNNY   77  64  65 SW6G20    29.71F
PALESTINE      MOSUNNY   78  67  67 S10       29.76F
JACKSONVILLE   PTSUNNY   75  64  69 W12G17    29.77F
HENDERSON      CLOUDY    75  64  69 W6G18     29.74F
NACOGDOCHES    MOSUNNY   79  66  65 SW12      29.75F
LUFKIN         SUNNY     83  66  56 SW9       29.75F
$$

SUPPLEMENTAL OBSERVATIONS (CENTRAL)

CITY           SKY/WX    TMP DP  RH WIND       PRES   REMARKS
LAKE TEXOMA      N/A     64  57  77 W16         N/A
CADDO GRASSLND   N/A     73  59  60 W8          N/A
PAT MAYSE LAKE   N/A     72  61  68 S15         N/A
GREENVILLE       N/A    N/A N/A N/A W15         N/A
CEDAR HILL       N/A     75  57  53 W8G17       N/A
ATHENS           N/A     79  64  61 SW7G15      N/A
LAKE LIMESTONE   N/A     81  68  65 W13         N/A
MCGREGOR         N/A     82  57  42 W10         N/A
TEMPLE           N/A     84  57  39 W10G23      N/A
$$

SUPPLEMENTAL OBSERVATIONS (WEST)

CITY           SKY/WX    TMP DP  RH WIND       PRES   REMARKS
POSSUM KINGDOM   N/A     73  48  40 NW16G23     N/A
LBJ GRASSLAND    N/A     72  57  60 W12         N/A
GRANBURY         N/A     73  55  53 NW17G29     N/A
COMANCHE         N/A     73  52  46 NW16G24     N/A
HAMBY            N/A     73  41  31 NW14G24     N/A
IVIE RESERVOIR   N/A     77  45  31 NW14        N/A
COLORADO BEND    N/A     81  46  30 N12G20      N/A
$$

SUPPLEMENTAL OBSERVATIONS (EAST)

CITY           SKY/WX    TMP DP  RH WIND       PRES   REMARKS
CLARKSVILLE      N/A     75  66  73 SW3G17      N/A
TEXARKANA        N/A     79  66  65 SW6         N/A
LINDEN           N/A     75  63  64 SW7G17      N/A
CADDO LAKE       N/A     81  64  57 SW6G14      N/A
GILMER           N/A     75  63  64 SW12G20     N/A
HENDERSON        N/A     79  64  61 SW15G24     N/A
N SABINE NF      N/A     81  68  65 MISG        N/A
S SABINE NF      N/A     81  64  57 CALM        N/A
$$

SUPPLEMENTAL OBSERVATIONS ARE A COLLECTION OF AUTOMATED INSTRUMENTS
THAT ARE MAINTAINED BY A VARIETY OF FEDERAL AND STATE AGENCIES.
CERTAIN ELEMENTS...SUCH AS HUMIDITY VALUES AND SUSTAINED WIND
SPEEDS...MAY BE APPROXIMATED.



USA.gov is the U.S. government's official web portal to all federal, state and local government web resources and services.